Previsão horária em Jurowce

Hoje, 24 Junho, Quinta-feira

Tempo Temperatura Precipitação Vento Pressão Humidade
00:00 +20°C° 1.3 mm 2 m/s 751 mmHg 95%
01:00 +20°C° 1.3 mm 3 m/s 751 mmHg 96%
02:00 +19°C° 1.3 mm 3 m/s 751 mmHg 96%
03:00 +19°C° 0.1 mm 2 m/s 751 mmHg 97%
04:00 +19°C° 0.1 mm 2 m/s 751 mmHg 97%
05:00 +20°C° 0.1 mm 1 m/s 751 mmHg 97%
06:00 +20°C° 0 mm 2 m/s 751 mmHg 93%
07:00 +23°C° 0 mm 2 m/s 751 mmHg 90%
08:00 +24°C° 0 mm 2 m/s 751 mmHg 86%
09:00 +26°C° 0 mm 2 m/s 751 mmHg 79%
10:00 +28°C° 0 mm 1 m/s 751 mmHg 72%
11:00 +29°C° 0 mm 1 m/s 751 mmHg 66%
12:00 +30°C° 0.2 mm 1 m/s 751 mmHg 62%
13:00 +31°C° 0.2 mm 1 m/s 750 mmHg 57%
14:00 +32°C° 0.2 mm 2 m/s 750 mmHg 53%
15:00 +32°C° 0 mm 2 m/s 750 mmHg 52%
16:00 +32°C° 0 mm 2 m/s 750 mmHg 52%
17:00 +32°C° 0 mm 2 m/s 749 mmHg 51%
18:00 +31°C° 0.1 mm 2 m/s 749 mmHg 58%
19:00 +29°C° 0.1 mm 2 m/s 749 mmHg 65%
20:00 +28°C° 0.1 mm 2 m/s 748 mmHg 73%
21:00 +26°C° 3.5 mm 2 m/s 748 mmHg 79%
22:00 +24°C° 3.5 mm 2 m/s 748 mmHg 86%
23:00 +20°C° 3.5 mm 2 m/s 748 mmHg 92%

Amanhã, 25 Junho, Sexta-feira

Tempo Temperatura Precipitação Vento Pressão Humidade
00:00 +21°C° 0.4 mm 1 m/s 748 mmHg 92%
01:00 +21°C° 0.4 mm 1 m/s 748 mmHg 92%
02:00 +18°C° 0.4 mm 0 m/s 748 mmHg 93%
03:00 +20°C° 0 mm 1 m/s 748 mmHg 93%
04:00 +19°C° 0 mm 2 m/s 748 mmHg 93%
05:00 +19°C° 0 mm 2 m/s 748 mmHg 94%
06:00 +20°C° 0 mm 2 m/s 748 mmHg 90%
07:00 +23°C° 0 mm 2 m/s 748 mmHg 86%
08:00 +24°C° 0 mm 2 m/s 748 mmHg 82%
09:00 +25°C° 0 mm 2 m/s 748 mmHg 78%
10:00 +26°C° 0 mm 2 m/s 748 mmHg 75%
11:00 +27°C° 0 mm 2 m/s 748 mmHg 71%
12:00 +27°C° 0.1 mm 3 m/s 748 mmHg 72%
13:00 +27°C° 0.1 mm 3 m/s 748 mmHg 72%
14:00 +27°C° 0.1 mm 4 m/s 748 mmHg 72%
15:00 +26°C° 0.1 mm 4 m/s 748 mmHg 76%
16:00 +25°C° 0.1 mm 4 m/s 748 mmHg 79%
17:00 +23°C° 0.1 mm 4 m/s 748 mmHg 82%
18:00 +22°C° 0 mm 4 m/s 748 mmHg 84%
19:00 +21°C° 0 mm 4 m/s 748 mmHg 85%
20:00 +20°C° 0 mm 4 m/s 749 mmHg 87%
21:00 +19°C° 0 mm 4 m/s 749 mmHg 86%
22:00 +19°C° 0 mm 3 m/s 749 mmHg 85%
23:00 +18°C° 0 mm 3 m/s 750 mmHg 84%

Depois de amanhã, 26 Junho, Sábado

Tempo Temperatura Precipitação Vento Pressão Humidade
00:00 +17°C° 0 mm 3 m/s 750 mmHg 87%
01:00 +16°C° 0 mm 3 m/s 750 mmHg 91%
02:00 +15°C° 0 mm 2 m/s 750 mmHg 94%
03:00 +15°C° 0 mm 2 m/s 751 mmHg 94%
04:00 +14°C° 0 mm 2 m/s 751 mmHg 94%
05:00 +14°C° 0 mm 2 m/s 751 mmHg 94%
06:00 +16°C° 0 mm 3 m/s 751 mmHg 86%
07:00 +17°C° 0 mm 3 m/s 751 mmHg 79%
08:00 +19°C° 0 mm 4 m/s 751 mmHg 72%
09:00 +20°C° 0 mm 3 m/s 752 mmHg 67%
10:00 +21°C° 0 mm 3 m/s 752 mmHg 62%
11:00 +24°C° 0 mm 3 m/s 752 mmHg 57%
12:00 +24°C° 0 mm 3 m/s 752 mmHg 55%
13:00 +25°C° 0 mm 2 m/s 752 mmHg 53%
14:00 +25°C° 0 mm 2 m/s 752 mmHg 51%
15:00 +25°C° 0 mm 2 m/s 752 mmHg 52%
16:00 +25°C° 0 mm 2 m/s 752 mmHg 54%
17:00 +25°C° 0 mm 2 m/s 752 mmHg 55%
18:00 +24°C° 0 mm 1 m/s 751 mmHg 61%
19:00 +23°C° 0 mm 1 m/s 751 mmHg 67%
20:00 +22°C° 0 mm 1 m/s 751 mmHg 73%
21:00 +19°C° 0 mm 2 m/s 751 mmHg 77%
22:00 +18°C° 0 mm 2 m/s 752 mmHg 81%
23:00 +17°C° 0 mm 2 m/s 752 mmHg 86%

27 Junho, Domingo

Tempo Temperatura Precipitação Vento Pressão Humidade
00:00 +16°C° 0 mm 2 m/s 752 mmHg 88%
01:00 +16°C° 0 mm 2 m/s 752 mmHg 90%
02:00 +16°C° 0 mm 2 m/s 752 mmHg 92%
03:00 +15°C° 0 mm 1 m/s 752 mmHg 91%
04:00 +15°C° 0 mm 1 m/s 752 mmHg 91%
05:00 +15°C° 0 mm 1 m/s 752 mmHg 91%
06:00 +18°C° 0 mm 1 m/s 752 mmHg 83%
07:00 +20°C° 0 mm 1 m/s 752 mmHg 76%
08:00 +22°C° 0 mm 1 m/s 752 mmHg 69%
09:00 +23°C° 0 mm 1 m/s 752 mmHg 64%
10:00 +24°C° 0 mm 1 m/s 752 mmHg 58%
11:00 +25°C° 0 mm 2 m/s 753 mmHg 53%
12:00 +26°C° 0 mm 2 m/s 752 mmHg 51%
13:00 +26°C° 0 mm 2 m/s 752 mmHg 50%
14:00 +27°C° 0 mm 2 m/s 752 mmHg 48%
15:00 +26°C° 0 mm 2 m/s 752 mmHg 53%
16:00 +25°C° 0 mm 2 m/s 752 mmHg 58%
17:00 +25°C° 0 mm 1 m/s 752 mmHg 62%
18:00 +24°C° 0 mm 1 m/s 752 mmHg 65%
19:00 +23°C° 0 mm 1 m/s 752 mmHg 67%
20:00 +23°C° 0 mm 1 m/s 752 mmHg 69%
21:00 +21°C° 0 mm 1 m/s 752 mmHg 73%
22:00 +20°C° 0 mm 1 m/s 752 mmHg 76%
23:00 +18°C° 0 mm 2 m/s 752 mmHg 79%

28 Junho, Segunda-feira

Tempo Temperatura Precipitação Vento Pressão Humidade
00:00 +18°C° 0 mm 1 m/s 752 mmHg 80%
01:00 +18°C° 0 mm 1 m/s 752 mmHg 80%
02:00 +18°C° 0 mm 1 m/s 752 mmHg 81%
03:00 +16°C° 0 mm 1 m/s 752 mmHg 81%
04:00 +16°C° 0 mm 1 m/s 752 mmHg 82%
05:00 +16°C° 0 mm 1 m/s 752 mmHg 82%
06:00 +19°C° 0 mm 1 m/s 752 mmHg 75%
07:00 +21°C° 0 mm 1 m/s 753 mmHg 69%
08:00 +23°C° 0 mm 1 m/s 753 mmHg 62%
09:00 +24°C° 0 mm 1 m/s 753 mmHg 58%
10:00 +25°C° 0 mm 1 m/s 753 mmHg 54%
11:00 +27°C° 0 mm 1 m/s 753 mmHg 50%
12:00 +27°C° 0 mm 2 m/s 753 mmHg 49%
13:00 +27°C° 0 mm 2 m/s 753 mmHg 47%
14:00 +28°C° 0 mm 2 m/s 752 mmHg 46%
15:00 +27°C° 0 mm 2 m/s 752 mmHg 50%
16:00 +26°C° 0 mm 2 m/s 752 mmHg 55%
17:00 +26°C° 0 mm 2 m/s 752 mmHg 59%
18:00 +25°C° 0 mm 2 m/s 752 mmHg 63%
19:00 +24°C° 0 mm 1 m/s 752 mmHg 67%
20:00 +23°C° 0 mm 1 m/s 752 mmHg 71%
21:00 +22°C° 0 mm 1 m/s 753 mmHg 73%
22:00 +21°C° 0 mm 1 m/s 753 mmHg 76%
23:00 +20°C° 0 mm 1 m/s 753 mmHg 78%

29 Junho, Terça-feira

Tempo Temperatura Precipitação Vento Pressão Humidade
00:00 +19°C° 0 mm 1 m/s 753 mmHg 80%
01:00 +19°C° 0 mm 1 m/s 753 mmHg 81%
02:00 +18°C° 0 mm 1 m/s 753 mmHg 83%
03:00 +18°C° 0 mm 1 m/s 753 mmHg 83%
04:00 +18°C° 0 mm 1 m/s 753 mmHg 82%
05:00 +16°C° 0 mm 0 m/s 753 mmHg 82%
06:00 +20°C° 0 mm 1 m/s 753 mmHg 76%
07:00 +22°C° 0 mm 1 m/s 753 mmHg 70%
08:00 +24°C° 0 mm 1 m/s 753 mmHg 64%
09:00 +25°C° 0 mm 1 m/s 753 mmHg 59%
10:00 +27°C° 0 mm 1 m/s 753 mmHg 54%
11:00 +26°C° 0 mm 0 m/s 753 mmHg 49%
12:00 +29°C° 0 mm 1 m/s 753 mmHg 46%
13:00 +29°C° 0 mm 1 m/s 753 mmHg 44%
14:00 +30°C° 0 mm 1 m/s 753 mmHg 42%
15:00 +29°C° 0 mm 1 m/s 753 mmHg 44%
16:00 +29°C° 0 mm 1 m/s 753 mmHg 46%
17:00 +28°C° 0 mm 1 m/s 752 mmHg 48%
18:00 +27°C° 0 mm 1 m/s 752 mmHg 54%
19:00 +26°C° 0 mm 1 m/s 752 mmHg 60%
20:00 +25°C° 0 mm 1 m/s 752 mmHg 65%
21:00 +24°C° 0 mm 1 m/s 752 mmHg 67%
22:00 +22°C° 0 mm 1 m/s 752 mmHg 69%
23:00 +21°C° 0 mm 1 m/s 753 mmHg 71%
Mostrar mais

Necessitamos do seu Consentimento

A Meteoprog e os seus Fornecedores de Serviços podem armazenar e aceder a dados pessoais como cookies, identificadores do dispositivo ou outras tecnologias semelhantes existentes no seu dispositivo e processar estes dados para personalizar conteúdos e anúncios, assim como funcionalidades nas redes sociais e análise de tráfego.

  • Armazenar e/ou aceder a informações no seu dispositivo

    Os cookies, identificadores do dispositivo ou outras informações podem ser armazenados ou acedidos no seu dispositivo, para os fins acima indicados.

  • Anúncios e conteúdos personalizados, medição de anúncios e conteúdos, dados sobre o público-alvo e desenvolvimento de produtos

    Os anúncios e os conteúdos podem ser personalizados com base num perfil. Podem ser adicionados dados adicionais para uma maior personalização dos anúncios e dos conteúdos. A eficácia dos anúncios e dos conteúdos pode ser medida. Podem ser obtidas informações sobre o público que visualizou os anúncios e os conteúdos. Estes dados podem ser usados para desenvolver ou melhorar sistemas, softwares ou a experiência do utilizador.

Ao clicar em "Eu concordo”, permitirá o uso de cookies, identificadores do dispositivo e web beacons mencionados ou outras tecnologias semelhantes. As configurações do navegador do seu dispositivo podem ser alteradas.

Para certos fins, podem ser invocados interesses legítimos ao invés de consentimento. Pode ler mais informação sobre este assunto na nossa Política de Privacidade e Cookies.